Lihue, HI

4:39 PM HST on August 16, 2017 (GMT -1000)
Lihue

Weather History for PHLI - December, 2011

Change the Weather History Date:

Friday, December 16, 2011

  Actual Average Record
Temperature  
Mean Temperature 76 °F 73 °F  
Max Temperature 79 °F 79 °F 85 °F (1979)
Min Temperature 73 °F 68 °F 57 °F (1983)
Degree Days  
Heating Degree Days 0 0  
Month to date heating degree days 0 0  
Since 1 July heating degree days 0 0  
Cooling Degree Days 11 8  
Month to date cooling degree days 112 139  
Year to date cooling degree days 4000 3830  
Growing Degree Days 25 (Base 50)    
Moisture  
Dew Point 67 °F    
Average Humidity 77    
Maximum Humidity 87    
Minimum Humidity 67    
Precipitation  
Precipitation T in 0.18 in 3.42 in (1951)
Month to date precipitation 0.93 2.63  
Year to date precipitation 40.47 34.48  
Snow  
Snow 0.00 in - - ()
Month to date snowfall 0.0  
Since 1 July snowfall 0.0  
Snow Depth 0.00 in    
Sea Level Pressure  
Sea Level Pressure 30.11 in    
Wind  
Wind Speed 12 mph (NE)    
Max Wind Speed 16 mph    
Max Gust Speed 20 mph    
Visibility 10 miles    
Events Rain    
T = Trace of Precipitation, MM = Missing Value Source: NWS Daily Summary

Daily Weather History Graph

Daily Weather History Graph

Search for Another Location

Airport or City:

Trip Planner

Search our weather history database for the weather conditions in past years. The results will help you decide how hot, cold, wet, or windy it might be!

Date:

Astronomy

Dec. 16, 2011 Rise Set
Actual Time 7:09 AM HST 5:57 PM HST
Civil Twilight 6:44 AM HST 6:21 PM HST
Nautical Twilight 6:16 AM HST 6:49 PM HST
Astronomical Twilight 5:49 AM HST 7:16 PM HST
Moon 11:59 PM HST (12/16) 11:39 AM HST (12/16)
Length of Visible Light 11h 36m
Length of Day
10h 47m
Waning Gibbous, 62% of the Moon is Illuminated
Dec 16
Waning Gibbous
Dec 17
Last Quarter
Dec 24
New
Dec 31
First Quarter
Jan 8
Full

Hourly Weather History & Observations

Time (HST) Temp. Dew Point Humidity Pressure Visibility Wind Dir Wind Speed Gust Speed Precip Events Conditions
12:33 AM 73.4 °F 68.0 °F 83% 30.13 in 10.0 mi ENE 10.4 mph - N/A   Overcast
12:53 AM 73.9 °F 68.0 °F 82% 30.12 in 10.0 mi ENE 11.5 mph - N/A   Mostly Cloudy
1:53 AM 73.9 °F 68.0 °F 82% 30.11 in 10.0 mi ENE 10.4 mph - N/A   Scattered Clouds
2:05 AM 73.4 °F 68.0 °F 83% 30.11 in 10.0 mi ENE 11.5 mph - N/A   Mostly Cloudy
2:12 AM 73.4 °F 68.0 °F 83% 30.11 in 10.0 mi ENE 10.4 mph - N/A   Scattered Clouds
2:53 AM 73.0 °F 68.0 °F 84% 30.10 in 10.0 mi ENE 9.2 mph - N/A   Mostly Cloudy
3:53 AM 73.0 °F 68.0 °F 84% 30.10 in 10.0 mi ENE 11.5 mph - N/A   Mostly Cloudy
4:53 AM 73.0 °F 68.0 °F 84% 30.09 in 10.0 mi NE 11.5 mph - N/A   Mostly Cloudy
5:00 AM 73.4 °F 68.0 °F 83% 30.09 in 10.0 mi ENE 11.5 mph - N/A   Scattered Clouds
5:53 AM 73.0 °F 68.0 °F 84% 30.09 in 10.0 mi NE 10.4 mph - N/A   Scattered Clouds
6:01 AM 73.4 °F 68.0 °F 83% 30.10 in 10.0 mi NE 10.4 mph - N/A   Mostly Cloudy
6:34 AM 73.4 °F 68.0 °F 83% 30.11 in 10.0 mi NE 10.4 mph - N/A   Scattered Clouds
6:53 AM 73.0 °F 68.0 °F 84% 30.11 in 10.0 mi NE 11.5 mph - N/A   Scattered Clouds
7:00 AM 73.4 °F 66.2 °F 78% 30.12 in 10.0 mi NE 12.7 mph - N/A   Mostly Cloudy
7:32 AM 73.4 °F 66.2 °F 78% 30.13 in 10.0 mi NE 11.5 mph - N/A   Scattered Clouds
7:53 AM 73.0 °F 66.9 °F 81% 30.13 in 10.0 mi NE 12.7 mph - N/A   Scattered Clouds
8:53 AM 75.9 °F 66.9 °F 74% 30.14 in 10.0 mi NE 13.8 mph - N/A   Partly Cloudy
9:53 AM 77.0 °F 66.9 °F 71% 30.15 in 10.0 mi NE 13.8 mph - N/A   Partly Cloudy
10:53 AM 78.1 °F 68.0 °F 71% 30.14 in 10.0 mi NE 15.0 mph - N/A   Scattered Clouds
11:53 AM 75.9 °F 66.9 °F 74% 30.12 in 10.0 mi NE 12.7 mph - 0.00 in   Scattered Clouds
12:05 PM 78.8 °F 66.2 °F 65% 30.11 in 10.0 mi ENE 13.8 mph - N/A   Mostly Cloudy
12:12 PM 78.8 °F 68.0 °F 69% 30.12 in 10.0 mi NE 12.7 mph - N/A   Scattered Clouds
12:53 PM 78.1 °F 66.9 °F 68% 30.08 in 10.0 mi NE 13.8 mph - N/A   Partly Cloudy
1:53 PM 78.1 °F 66.0 °F 66% 30.06 in 10.0 mi NE 13.8 mph - N/A   Clear
2:53 PM 78.1 °F 66.0 °F 66% 30.06 in 10.0 mi NE 12.7 mph - N/A   Scattered Clouds
3:53 PM 77.0 °F 66.0 °F 69% 30.06 in 10.0 mi NE 11.5 mph - N/A   Scattered Clouds
4:53 PM 75.0 °F 66.0 °F 73% 30.07 in 10.0 mi NE 13.8 mph - N/A   Mostly Cloudy
5:53 PM 73.9 °F 66.9 °F 79% 30.09 in 10.0 mi ENE 12.7 mph - N/A   Overcast
6:53 PM 73.9 °F 66.0 °F 76% 30.11 in 10.0 mi ENE 21.9 mph 28.8 mph N/A   Overcast
7:53 PM 73.0 °F 64.9 °F 76% 30.12 in 10.0 mi NE 18.4 mph - 0.00 in   Partly Cloudy
8:53 PM 73.9 °F 66.0 °F 76% 30.13 in 10.0 mi NE 17.3 mph - N/A   Mostly Cloudy
9:53 PM 73.0 °F 64.9 °F 76% 30.14 in 10.0 mi NE 16.1 mph - N/A   Scattered Clouds
10:10 PM 73.4 °F 64.4 °F 73% 30.14 in 10.0 mi NE 17.3 mph - N/A   Mostly Cloudy
10:17 PM 73.4 °F 64.4 °F 73% 30.14 in 10.0 mi NE 15.0 mph - N/A   Scattered Clouds
10:53 PM 72.0 °F 66.0 °F 81% 30.14 in 4.0 mi East 23.0 mph 28.8 mph 0.00 in Rain Light Rain
11:53 PM 72.0 °F 66.0 °F 81% 30.13 in 10.0 mi NE 13.8 mph - 0.06 in   Partly Cloudy